Regional Weather Roundup
Issued by NWS

Home | Current Version | Previous Version | Text Only | Print | Product List | Glossary On
Versions: 1 2 3 4 5 6 7 8 9 10 11 12 13 14 15 16 17 18 19 20 21 22 23 24 25 26 27 28 29 30 31 32 33 34 35 36 37 38 39 40 41 42 43 44 45 46 47 48 49 50
000
ASUS45 KBOU 262107
RWRCO

WEATHER ROUNDUP FOR COLORADO
NATIONAL WEATHER SERVICE DENVER/BOULDER CO
300 PM MDT SUN APR 26 2015

NOTE: "FAIR" INDICATES FEW OR NO CLOUDS BELOW 12000 FEET WITH NO
SIGNIFICANT WEATHER AND/OR OBSTRUCTIONS TO VISIBILITY.

COZ001>005-013-030-031-262200-
...NORTHWEST COLORADO...

CITY           SKY/WX    TMP DP  RH WIND       PRES   REMARKS
CRAIG          LGT RAIN  47  39  74 SE8       29.84R
HAYDEN         CLOUDY    45  34  65 W13G22    29.83R
MEEKER         LGT RAIN  46  39  76 NE9       29.83R
MOUNT WERNER   NOT AVBL
STEAMBOAT SPGS CLOUDY    49  34  54 NE15G26   29.80F
WALDEN         CLOUDY    45  30  57 S6        29.86R
$$

COZ006>008-011-262200-
...WEST CENTRAL VALLEYS...

CITY           SKY/WX    TMP DP  RH WIND       PRES   REMARKS
GRAND JUNCTION PTSUNNY   55  42  61 W8        29.77F
MONTROSE       CLOUDY    49  39  68 N7        29.81R
EAGLE          LGT RAIN  46  41  81 CALM      29.84S
RIFLE          CLOUDY    52  40  63 NW10      29.78R
DELTA          CLOUDY    57  40  52 MISG      29.74S
NUCLA          CLOUDY    54  37  54 NW10G17   29.81S
$$

COZ017>023-064>068-262200-
...SOUTHWEST COLORADO...

CITY           SKY/WX    TMP DP  RH WIND       PRES   REMARKS
DURANGO        LGT RAIN  43  37  79 SE12      29.77R
CORTEZ         CLOUDY    52  39  61 W13G20    29.75S
PAGOSA SPRINGS LGT RAIN  45  35  67 CALM      29.77R
TELLURIDE      SNOW      35  35 100 W16       29.85R VSB 1/4 WCI  25
WOLF CREEK PAS NOT AVBL
$$

COZ009-010-012-014-032>034-037-058>063-262200-
...CENTRAL COLORADO...

CITY           SKY/WX    TMP DP  RH WIND       PRES   REMARKS
ASPEN          LGT RAIN  43  36  76 N8        29.80R
BUENA VISTA    CLOUDY    40  36  84 NE6       29.86R
COPPER MTN     CLOUDY    34  30  86 E13       29.94S WCI  25
BERTHOUD PASS  TSTM      21  14  73 MISG      29.98R VSB<1/4
COTTONWOOD PAS SNOW      36  34  93 CALM      29.89R VSB<1/4
GUNNISON       CLOUDY    41  30  65 SW9       29.82R
KREMMLING      LGT RAIN  45  34  65 NW5       29.86S
LEADVILLE      SNOW      31  30  96 CALM      29.88R VSB 1/2
MONARCH PASS   CLOUDY    27  27 100 MISG      30.00R
SALIDA         CLOUDY    41  39  91 SE9       29.92R
SUNLIGHT       SNOW      34  32  93 N3        29.94R VSB 1/2
WILKERSON PASS SNOW     N/A N/A N/A MISG      29.95R VSB 1/2
$$

COZ069>075-262200-
...SAN LUIS VALLEY/SANGRE DE CRISTO MOUNTAINS...

CITY           SKY/WX    TMP DP  RH WIND       PRES   REMARKS
ALAMOSA        LGT RAIN  48  32  53 SW10      29.76R
LA VETA PASS   TSTM      30  30 100 NE10G22   29.85R VSB<1/4 WCI  21
SAGUACHE       LGT RAIN  37  36  93 NE3       29.83R
$$

COZ035-036-038>040-262200-
...NORTHERN COLORADO FRONT RANGE...

CITY           SKY/WX    TMP DP  RH WIND       PRES   REMARKS
DENVER INTL AP LGT RAIN  43  43 100 E15       29.89R
DMNS CITY PARK   N/A     44  43  97 NE9       29.90S
AURORA         LGT RAIN  44  44 100 E15       29.89R
FRONT RANGE AP CLOUDY    45  45 100 E17       29.90R FOG
ERIE MUNI ARPT RAIN      45  43  93 E5        29.91R
BOULDER MUN AP LGT RAIN  43  43 100 CALM      29.91R
CENTENNIAL     CLOUDY    45  41  86 E9        29.88R
BROOMFIELD     RAIN      43  41  93 NW7       29.92
FORT COLLINS   CLOUDY    45  41  87 E10       29.94R
LONGMONT       RAIN      47  44  87 NE7       29.93S
$$

COZ041-046-047-076>085-087-088-262200-
...PIKES PEAK/PALMER DIVIDE AND SOUTHERN FOOTHILLS...

CITY           SKY/WX    TMP DP  RH WIND       PRES   REMARKS
COLO. SPRINGS  CLOUDY    46  42  86 E15       29.84F
A. F. ACADEMY  CLOUDY    43  43  98 E9        29.86R
ELLICOTT       LGT RAIN N/A N/A N/A E23       29.83S VSB 1
FALCON         CLOUDY    45  43  94 E14       29.87F
FORT CARSON    LGT RAIN  45  44  95 E6        29.82S
LIMON          LGT RAIN  42  41  96 E18       29.87F
MONUMENT HILL  CLOUDY    41  37  87 E18       29.87S FOG
TRINIDAD       LGT RAIN  45  38  76 SE7       29.77R
$$

COZ042>045-048>051-090-091-262200-
...NORTHEAST COLORADO...

CITY           SKY/WX    TMP DP  RH WIND       PRES   REMARKS
GREELEY ARPT   CLOUDY    45  39  81 E10       29.93S
AKRON          CLOUDY    41  41 100 E15G23    29.93R FOG
BURLINGTON     CLOUDY    44  42  93 E15       29.91S FOG
WRAY           CLOUDY   N/A N/A N/A E13       29.96R HAZE
STERLING       CLOUDY    43  43 100 E9        29.95R
HOLYOKE        CLOUDY    43  41  93 E14G20    29.97R FOG
FORT MORGAN    LGT RAIN  42  40  94 E16       29.94R
$$

COZ086-089-092>099-262200-
...SOUTHEAST COLORADO...

CITY           SKY/WX    TMP DP  RH WIND       PRES   REMARKS
PUEBLO         CLOUDY    48  45  89 E22       29.81R
LA JUNTA       CLOUDY    51  43  74 E26       29.80F
LAMAR          CLOUDY    47  45  93 E22       29.82F
SPRINGFIELD      N/A     46  46 100 E23       29.78F
$$



USA.gov is the U.S. government's official web portal to all federal, state and local government web resources and services.